Lapse_Rate
7.0 6.5 6.5 6.5 6.5 6.5 6.5 6.5 6.5 6.5 6.5 6.5 6.5 6.6 6.5 7.1 7.3 7.2 7.4 7.6 7.8 7.9 8.3 8.0 7.3 6.8 6.9 6.5 5.8 5.7 5.2 4.6 4.5 3.9 3.4 4.0 4.5 4.2 3.0 2.9 3.3 3.8 2.9 3.1
6.5 6.5 6.5 6.5 6.5 6.5 6.5 6.5 6.5 6.5 6.5 6.5 6.5 6.5 6.5 6.7 7.0 7.3 7.4 7.5 7.6 7.9 8.1 7.8 6.6 6.7 6.1 6.4 5.6 5.2 4.8 4.5 4.2 4.6 3.6 4.4 4.7 4.4 5.0 4.0 3.9 3.6 3.1 3.5
6.5 6.5 6.6 6.5 6.5 6.5 6.5 6.5 6.5 6.5 6.5 6.5 6.5 6.5 6.5 6.5 7.1 7.4 7.6 7.7 7.8 7.9 7.9 6.4 5.3 6.0 5.9 5.6 5.8 5.6 4.8 4.4 4.1 4.5 4.4 4.4 4.6 4.8 5.4 4.1 3.3 3.7 4.0 4.3
6.5 6.6 6.5 6.5 6.5 6.5 6.5 6.4 6.5 6.5 6.5 6.5 6.5 6.5 6.5 6.5 6.5 6.6 7.3 7.6 7.8 7.8 7.7 6.8 6.7 5.2 6.7 5.0 5.4 4.9 4.4 4.6 4.0 4.4 5.3 5.6 5.8 5.5 6.4 5.6 5.7 6.2 4.5 3.8
6.5 6.5 6.5 6.5 6.5 6.5 6.5 6.5 6.5 6.5 6.5 6.5 6.5 6.5 6.5 6.5 6.5 6.5 6.9 7.4 7.7 7.7 6.4 7.8 5.0 3.3 4.0 5.9 4.1 4.4 3.7 3.2 3.1 2.9 3.3 2.6 3.8 5.4 5.3 5.7 7.0 6.4 6.0 6.0
6.5 7.0 6.5 6.5 6.5 6.5 6.5 6.5 6.5 6.5 6.5 6.5 6.5 6.5 6.5 6.5 6.5 6.5 6.8 7.3 7.6 7.8 6.1 4.3 3.6 3.0 4.7 5.1 2.6 1.8 3.1 2.9 2.4 1.6 1.4 1.0 1.9 4.0 5.2 5.6 6.4 6.5 6.4 6.5
6.5 6.5 6.5 6.7 6.5 6.5 6.5 6.5 6.5 6.5 6.5 6.5 6.5 6.5 6.5 6.5 6.5 6.5 6.6 7.2 7.7 8.0 5.0 4.5 3.9 4.7 4.5 4.3 5.0 3.5 0.7 1.9 1.7 1.2 1.7 0.9 0.8 3.6 4.5 3.8 4.6 3.8 4.1 5.6
6.5 6.5 6.5 6.5 6.5 6.5 6.5 6.5 6.5 6.5 6.5 6.5 6.5 6.5 6.5 6.5 7.0 7.2 7.4 7.6 7.8 7.8 6.2 5.7 5.0 5.8 5.4 5.0 5.1 3.6 2.1 2.3 0.9 1.7 0.2 -0.0 -0.2 3.3 3.7 2.8 3.0 3.4 3.0 2.3
6.4 6.5 6.5 6.5 6.5 6.5 6.5 6.5 6.5 6.5 6.5 6.5 6.5 6.5 6.5 6.5 6.5 6.8 7.1 7.5 7.6 7.8 7.8 6.7 6.6 6.3 4.6 4.7 5.8 4.7 3.0 4.6 4.0 2.7 1.4 1.6 1.2 3.7 3.7 3.6 4.0 3.8 4.2 4.2
6.5 6.5 6.5 6.5 6.6 6.6 6.5 6.5 6.5 6.5 6.5 6.5 6.5 6.4 6.5 6.5 6.5 6.5 6.6 7.1 7.5 7.8 7.8 8.1 7.9 6.1 4.7 5.6 5.2 4.2 4.8 4.0 3.2 2.6 1.8 1.7 2.1 2.9 3.0 3.3 2.8 2.5 2.8 3.1
6.5 6.5 6.5 6.6 6.5 6.5 6.5 6.5 6.5 6.5 6.5 6.5 6.5 6.5 6.5 6.5 6.5 6.5 6.8 7.3 7.6 7.7 7.9 8.0 6.0 4.6 4.7 5.6 5.7 5.1 4.6 4.4 4.6 3.9 2.9 2.7 2.9 2.9 3.4 3.5 2.9 3.0 3.3 3.4
6.5 6.5 6.5 6.6 6.5 6.5 6.5 6.5 6.5 6.5 6.5 6.5 6.4 6.5 6.5 6.5 6.5 7.0 7.1 7.4 7.8 7.7 7.9 7.2 5.3 4.3 4.9 4.7 5.5 5.5 5.7 5.1 4.7 3.7 3.5 3.1 3.4 3.4 4.1 3.8 4.0 4.5 3.7 3.6
6.5 6.5 6.5 6.5 6.5 6.5 6.5 6.5 6.5 6.5 6.6 6.5 6.5 6.5 6.5 6.7 6.8 7.1 7.2 7.5 7.4 6.1 7.7 6.7 5.7 4.0 3.3 3.9 4.9 5.7 5.8 4.6 4.1 3.9 4.0 3.5 3.7 4.3 4.4 4.7 4.5 4.7 5.4 5.5
6.2 6.5 6.5 6.5 6.5 6.4 6.5 6.5 6.5 6.5 6.5 6.5 6.5 6.5 6.5 6.5 6.5 6.9 7.3 7.4 7.0 6.6 7.7 5.5 5.2 5.5 5.1 5.0 4.5 4.1 4.0 4.2 4.3 3.8 3.1 3.0 3.6 4.0 5.0 5.4 6.3 6.4 5.6 5.2
6.5 6.5 6.5 6.5 6.5 6.5 6.5 6.5 6.5 6.5 6.6 6.5 6.5 6.5 6.5 6.5 6.5 7.0 7.5 7.6 7.5 7.1 7.6 7.5 6.7 5.8 5.6 5.1 4.3 4.0 3.8 3.1 3.0 3.0 3.4 3.4 4.4 5.5 5.9 5.6 5.4 5.5 5.0 4.5
6.5 6.5 6.5 6.5 6.5 6.5 6.5 6.5 6.5 6.5 6.5 6.5 6.5 6.5 6.5 7.1 7.3 7.2 7.4 7.5 7.5 7.6 7.8 7.9 7.2 6.5 6.0 5.1 4.6 4.0 3.8 3.8 3.9 4.5 4.8 5.4 5.9 5.5 5.5 5.4 5.8 5.7 5.7 5.7
6.5 6.5 6.5 6.4 6.5 6.5 6.5 6.6 6.5 6.5 6.5 6.5 6.5 6.5 6.5 6.5 6.7 7.1 7.3 7.5 7.5 7.7 7.9 8.0 7.7 6.6 6.3 5.8 4.9 4.5 4.0 4.3 4.7 5.0 5.2 5.5 5.8 6.0 6.1 6.2 6.2 6.0 5.8 5.7
6.5 6.5 6.5 6.5 6.5 6.5 6.5 6.5 6.5 6.5 6.5 6.5 6.5 6.5 6.6 6.8 7.3 7.7 7.8 7.7 7.7 7.8 7.9 8.0 8.0 6.6 6.5 6.0 5.4 4.3 4.6 4.3 4.7 5.2 5.5 5.6 5.7 5.5 6.4 6.6 6.3 6.1 6.3 6.1
6.5 6.5 6.5 6.5 6.5 6.5 6.5 6.5 6.5 6.5 6.5 6.5 6.5 6.5 7.0 7.4 7.5 7.4 8.0 8.1 8.0 8.1 8.0 6.7 6.3 6.3 5.4 5.2 4.5 4.5 4.4 4.5 5.2 5.4 5.1 5.8 6.2 6.3 6.8 6.8 6.5 6.3 6.8 6.7
6.5 6.5 6.5 6.5 6.5 6.5 6.5 6.5 7.0 6.5 6.5 6.5 6.7 6.5 6.7 7.2 6.5 6.5 7.9 8.1 8.3 8.4 6.7 5.9 5.2 5.2 4.9 4.5 4.9 4.9 4.9 5.3 6.2 6.6 7.3 6.9 6.9 6.7 6.5 6.3 6.4 6.4 6.8 7.0
6.5 6.5 6.5 6.5 6.5 6.5 6.5 6.6 7.1 6.5 6.5 6.9 7.2 7.2 7.2 6.5 6.9 7.4 8.1 8.1 7.7 6.1 5.4 5.3 5.4 5.6 5.3 5.2 5.4 5.4 5.6 6.7 6.7 6.9 6.8 6.7 6.6 6.7 6.6 6.6 6.6 6.8 7.0 6.9
6.5 6.5 6.5 6.5 6.5 6.5 6.8 6.7 6.5 6.6 6.8 7.2 7.3 7.4 7.3 6.6 7.3 7.7 7.8 6.8 5.5 4.9 4.5 5.4 5.3 5.4 5.5 5.4 5.5 5.7 6.4 6.3 6.2 6.3 6.9 7.0 7.0 7.5 7.6 7.0 7.0 6.7 6.6 7.0
6.5 6.5 6.5 6.5 6.5 6.6 7.1 6.8 7.2 6.5 6.9 7.3 7.3 7.6 6.9 4.7 7.3 6.9 6.2 5.3 5.1 4.5 5.4 6.0 5.9 5.3 5.7 5.6 6.2 6.3 5.7 5.9 6.6 7.3 7.4 7.3 7.0 7.1 6.8 6.9 7.1 8.0 7.6 8.0
6.5 6.8 6.5 6.5 6.5 6.5 6.9 7.4 7.3 7.1 7.0 7.7 7.7 6.7 4.9 4.4 6.7 6.5 5.9 5.3 5.2 5.4 5.8 6.0 5.8 5.8 5.2 5.4 6.0 6.8 6.3 6.7 7.4 7.6 7.5 7.2 7.2 6.5 6.8 7.5 7.7 8.1 8.8 9.0
6.7 6.7 6.5 6.5 6.6 6.9 6.7 7.2 7.4 6.1 5.6 7.4 7.6 5.4 1.6 1.9 6.2 5.3 5.9 5.4 5.7 5.9 5.5 5.5 5.9 5.6 5.2 5.6 6.3 6.9 6.9 6.9 7.7 7.4 7.3 7.5 7.8 7.1 7.1 7.0 7.5 8.0 7.8 7.3
6.8 6.5 6.5 6.5 6.7 6.8 6.9 6.9 5.9 5.7 7.5 4.2 0.7 4.9 4.9 3.1 1.9 4.4 4.9 5.1 4.8 5.0 5.1 5.6 5.8 5.7 5.3 6.1 6.2 6.2 6.5 6.7 7.2 7.3 8.0 8.0 8.1 8.1 8.1 8.2 8.4 2.0 1.5 0.8
Wind_Speed
2 5 8 6 3 4 2 3 5 7 4 10 16 12 13 17 15 14 13 13 13 14 11 10 11 13 12 10 11 11 11 10 7 5 3 4 5 4 6 7 13 11 10 10
5 10 5 8 6 4 1 2 4 6 7 9 3 12 11 17 19 16 15 15 16 13 10 7 10 11 11 11 11 10 9 8 7 5 2 1 1 2 3 4 8 8 13 13
10 4 12 8 9 6 3 3 3 4 2 2 3 4 8 13 13 14 15 14 12 11 10 10 6 6 7 7 8 8 7 6 3 2 3 2 1 3 3 3 4 6 13 15
5 5 9 7 7 5 8 7 4 3 5 4 3 3 3 8 14 16 17 16 13 11 12 11 2 7 6 4 4 5 4 5 5 4 2 4 5 6 5 5 5 5 7 10
5 7 8 11 12 7 5 2 3 2 2 2 5 3 0 2 9 16 18 16 12 12 12 9 8 8 4 3 10 9 11 13 13 11 7 5 7 8 5 6 4 2 2 1
4 1 2 2 7 3 2 3 3 3 2 4 2 6 4 3 2 6 11 13 14 15 13 8 8 7 5 9 10 13 16 13 11 11 8 9 11 11 6 3 3 3 3 3
2 5 1 2 2 4 4 4 3 3 3 1 3 5 8 4 4 6 5 7 15 16 12 10 5 4 8 6 9 10 13 9 8 6 2 11 13 10 5 4 3 4 4 4
10 7 9 7 9 5 5 7 4 5 3 1 2 4 2 2 3 5 3 7 14 15 12 10 7 6 7 8 6 7 5 6 7 11 13 13 17 4 4 6 5 5 5 6
5 6 2 5 6 8 6 5 1 4 1 3 2 4 10 7 2 3 7 11 13 12 12 11 8 7 7 7 6 4 9 10 12 13 14 13 11 7 5 5 4 5 6 6
7 2 2 3 4 4 4 9 4 1 5 5 3 3 6 6 8 5 6 9 9 10 10 9 6 4 5 5 6 8 10 11 12 13 13 11 11 8 6 5 7 7 7 7
8 6 3 4 6 8 4 4 3 2 1 5 5 4 3 4 11 11 9 9 10 9 8 7 6 5 6 7 10 13 12 12 10 11 13 12 10 9 6 6 8 7 6 6
11 10 11 12 1 2 2 2 6 5 5 1 3 4 1 1 10 12 11 11 10 8 9 9 9 8 8 8 10 12 11 10 10 11 11 11 10 8 7 7 7 6 8 9
10 7 7 6 5 3 6 5 6 2 1 7 8 6 3 6 10 10 13 12 9 11 12 11 9 9 9 10 11 12 11 10 10 10 11 10 10 8 7 7 7 7 6 6
13 8 10 10 6 4 7 6 8 11 5 7 10 12 7 11 13 13 13 12 10 10 12 11 11 11 11 10 11 11 11 9 9 10 11 10 9 8 7 7 7 7 7 8
9 11 11 14 13 11 13 9 9 12 11 9 8 11 11 17 19 16 15 13 13 13 12 13 13 11 11 11 10 10 10 10 11 10 9 8 5 6 7 8 9 9 10 10
3 2 6 7 9 10 10 9 10 13 9 11 7 11 4 16 16 16 16 16 16 16 15 14 13 12 11 11 11 10 9 8 7 6 6 6 6 8 9 9 9 10 9 9
3 6 6 6 6 8 8 14 12 8 9 8 10 7 13 19 19 20 19 17 17 17 17 15 14 12 11 11 10 9 8 7 7 7 6 6 7 8 9 9 8 8 8 8
2 3 3 2 9 8 4 1 11 12 5 12 7 6 13 15 15 16 16 17 17 16 16 15 13 12 11 11 10 9 8 8 7 6 7 7 7 7 7 7 7 7 7 8
12 5 3 4 7 2 3 6 9 11 13 15 8 12 14 15 15 13 15 14 16 16 15 14 13 13 12 11 9 8 8 7 6 7 7 6 5 4 4 6 6 6 6 8
9 3 5 4 4 8 6 9 7 3 9 14 14 18 22 20 10 10 17 15 16 16 15 15 15 13 12 10 9 9 8 6 5 4 4 4 4 5 5 5 5 5 4 4
5 3 9 6 4 3 4 7 9 7 6 19 19 21 22 13 3 14 19 16 16 16 17 16 15 13 11 9 8 8 7 6 4 3 4 3 3 3 4 3 3 3 3 4
5 5 4 3 4 7 9 9 10 8 1 17 17 21 18 12 17 22 20 19 19 19 18 17 14 12 11 9 9 9 8 6 4 5 4 3 2 2 2 2 2 3 4 4
4 4 2 6 5 2 15 4 6 6 7 16 20 20 18 20 21 21 19 20 19 20 17 15 14 14 11 10 9 10 8 5 5 5 4 2 1 1 2 3 4 4 3 5
6 4 3 2 6 12 10 14 10 7 10 15 16 22 19 22 22 20 19 19 18 17 17 15 15 14 12 9 8 8 7 6 5 4 2 0 2 2 2 3 3 4 5 5
2 6 3 6 12 8 13 12 8 5 14 16 14 18 21 24 21 22 19 18 17 16 15 14 13 12 12 10 9 8 6 5 4 2 1 1 1 1 1 1 2 3 2 3
5 6 5 4 2 5 3 5 9 11 14 22 26 17 16 21 24 21 18 17 17 17 15 13 12 12 11 10 9 7 6 4 4 2 3 1 1 1 1 2 3 8 9 7
Wind_Direction
118 191 216 162 113 136 184 264 327 285 292 215 226 234 192 191 201 207 207 200 214 226 227 228 219 204 218 228 227 219 220 223 202 196 202 230 237 204 192 203 225 228 212 204
166 214 160 153 160 144 206 340 293 285 326 207 250 234 215 200 206 206 209 210 211 215 221 228 232 224 201 219 219 221 222 215 214 208 144 129 158 193 243 219 241 248 241 219
210 159 160 153 158 179 190 221 298 312 345 118 195 235 209 222 210 207 219 224 225 218 207 210 192 205 207 220 234 226 222 216 182 186 126 101 310 274 256 238 257 245 250 270
221 168 190 185 196 213 274 201 267 300 331 329 323 306 230 231 220 216 220 217 215 198 203 222 83 33 2 110 142 157 171 112 106 118 66 350 325 305 311 301 277 268 246 261
174 178 190 219 232 192 247 172 323 28 227 238 176 255 168 302 236 226 221 219 200 179 183 163 135 119 80 148 120 111 106 105 101 93 84 66 353 305 305 296 304 94 118 3
166 313 202 210 140 185 140 164 86 85 162 225 113 233 269 222 226 257 231 211 185 165 165 154 133 120 93 78 90 114 102 111 122 126 135 85 29 342 308 323 338 7 36 32
161 212 191 191 220 156 187 203 246 242 201 287 53 212 266 213 252 285 300 223 173 171 168 155 140 125 96 107 117 111 123 144 147 132 176 93 54 6 14 16 17 52 39 29
201 209 200 178 224 253 185 221 207 246 222 353 139 234 284 182 347 358 343 162 156 171 168 164 171 137 118 130 130 92 58 97 101 95 73 62 77 15 25 30 23 19 23 16
162 224 245 217 188 196 158 196 102 142 119 233 175 263 260 235 139 61 110 147 165 165 167 177 180 169 156 160 167 127 85 112 110 105 95 91 92 105 80 51 40 36 25 7
190 158 207 143 164 75 247 144 166 210 195 234 189 265 263 182 182 160 154 140 148 153 163 169 160 140 145 115 86 110 105 94 91 89 93 94 93 83 69 59 54 44 27 14
161 219 170 217 197 181 154 174 65 123 273 245 242 230 228 191 172 169 153 145 154 159 162 162 135 109 103 101 108 108 104 103 98 99 92 92 86 81 72 59 48 38 32 17
185 207 224 229 271 356 236 224 215 234 183 220 292 246 77 154 168 151 146 136 127 125 140 135 125 127 114 96 121 116 116 110 106 99 95 86 82 76 67 59 55 46 35 25
174 211 203 203 184 139 222 199 207 181 148 202 221 239 111 140 142 145 144 140 127 127 132 127 124 116 113 116 121 117 113 100 85 77 74 72 66 66 64 57 45 41 30 19
176 190 216 222 224 207 203 197 201 217 207 200 224 239 188 176 160 152 151 142 139 135 134 127 126 130 127 125 118 108 96 91 85 75 70 68 64 59 50 47 41 32 28 24
189 211 202 232 231 215 236 232 197 210 235 221 232 218 240 182 167 163 154 149 143 143 144 143 142 139 138 128 114 99 82 64 56 57 61 66 72 65 55 47 37 31 26 30
183 218 196 239 221 219 239 244 214 227 229 252 255 251 149 158 148 154 160 160 155 154 154 152 146 146 139 127 115 104 99 94 94 100 99 100 82 63 51 49 53 51 50 51
208 172 175 230 192 177 240 235 216 214 220 203 213 227 149 163 164 165 166 167 164 161 157 157 154 147 142 132 118 108 106 116 106 94 87 76 75 76 71 69 58 51 47 50
207 185 192 148 153 222 226 244 222 213 257 200 247 151 171 170 158 163 169 166 168 165 161 156 151 143 139 129 121 124 123 110 109 106 95 83 77 73 74 66 63 59 52 50
215 184 158 193 207 336 204 194 184 190 234 194 182 142 149 140 136 160 179 183 174 166 159 153 146 146 142 132 125 119 112 111 109 86 71 68 73 89 91 81 70 52 46 44
172 234 252 170 199 205 210 188 166 148 250 183 177 161 158 157 163 179 178 171 162 156 149 147 146 144 132 129 137 128 124 126 130 129 123 117 105 94 91 68 53 35 26 30
165 189 221 196 246 253 229 150 148 187 226 176 178 166 164 172 86 140 154 154 153 148 145 144 144 140 136 141 129 140 156 163 135 137 129 124 115 92 59 43 33 358 345 346
209 195 191 163 205 249 160 137 189 209 290 175 169 164 164 119 124 138 144 145 146 142 142 147 141 140 139 145 158 152 158 138 136 122 134 139 122 65 41 1 343 324 326 325
241 235 231 217 214 338 197 304 220 165 166 172 164 163 150 134 141 145 145 145 146 147 147 146 144 145 154 159 163 155 141 153 157 155 148 127 69 337 309 307 314 317 328 337
203 178 224 266 221 237 247 253 276 223 159 173 165 154 150 137 145 143 146 146 146 147 149 149 150 152 151 152 154 139 150 156 160 155 155 245 276 316 298 282 301 325 339 348
6 166 193 263 277 265 254 246 237 213 150 143 141 154 144 142 149 149 146 145 145 147 148 152 156 151 145 146 152 152 150 156 157 140 196 239 276 308 336 333 304 314 315 318
195 192 196 251 351 304 291 324 197 171 164 152 137 152 149 150 145 144 141 144 148 149 148 150 147 144 144 151 151 153 156 167 162 182 201 216 276 322 326 326 328 215 250 248